AC2EV Weather Reports


time (UTC)temp
C
wind
direction
speed
KPH
gust
KPH
rain 1hr
cm
rain 24hr
cm
rain mn
cm
humidity
%
barometer
mb
20260507075602 2 109 0.0 0.0 0.00 0.74 0.00 91 1011.6
20260507075102 3 109 0.0 0.0 0.00 0.74 0.00 91 1011.6
20260507074602 3 109 0.0 0.0 0.00 0.76 0.00 90 1011.6
20260507074102 3 109 0.0 0.0 0.00 0.76 0.00 90 1011.5
20260507073603 3 109 0.0 0.0 0.00 0.76 0.00 90 1011.6
20260507073103 3 109 0.0 0.0 0.00 0.79 0.00 90 1011.7
20260507072602 3 109 0.0 0.0 0.00 0.81 0.00 90 1011.7
20260507072103 3 109 0.0 0.0 0.00 0.81 0.00 90 1011.8
20260507071641 3 109 0.0 0.0 0.00 0.84 0.00 90 1011.8
20260507071156 4 109 0.0 0.0 0.00 0.84 0.00 90 1011.9
20260507070718 4 109 0.0 0.0 0.00 0.86 0.00 90 1012.0
20260507065603 4 109 0.0 0.0 0.00 0.89 0.00 89 1012.1
20260507065102 4 109 0.0 0.0 0.00 0.91 0.00 89 1012.0
20260507064603 4 109 0.0 0.0 0.00 0.91 0.00 89 1011.9
20260507064102 5 109 0.0 0.0 0.00 0.94 0.00 89 1011.9
20260507063603 5 109 0.0 0.0 0.00 0.97 0.00 89 1011.9
20260507063102 5 109 0.0 0.0 0.00 0.97 0.00 88 1011.8
20260507062603 5 109 0.0 0.0 0.00 0.99 0.00 88 1011.8
20260507062102 5 109 0.0 0.0 0.00 1.02 0.00 88 1011.8
20260507061602 5 109 0.0 0.0 0.00 1.02 0.00 88 1011.8
20260507061101 5 109 0.0 0.0 0.00 1.07 0.00 88 1011.8
20260507060602 5 109 0.0 0.0 0.00 1.07 0.00 88 1011.9
20260507060101 5 109 0.0 0.0 0.00 1.12 0.00 89 1011.8
20260507055601 5 109 0.0 0.0 0.00 1.14 0.00 89 1011.9
20260507055101 5 109 0.0 0.0 0.00 1.17 0.00 89 1012.1
20260507054601 5 109 0.0 0.0 0.00 1.19 0.00 89 1012.0
20260507054101 5 109 0.0 0.0 0.00 1.22 0.00 89 1012.1
20260507053602 5 109 0.0 0.0 0.00 1.24 0.00 89 1012.1
20260507053101 5 109 0.0 0.0 0.00 1.27 0.00 90 1012.1
20260507052714 5 109 0.0 0.0 0.00 1.30 0.00 90 1012.1
20260507052101 5 109 0.0 0.0 0.00 1.32 0.00 90 1012.3
20260507051603 5 109 0.0 0.0 0.00 1.35 0.00 90 1012.3
20260507051101 5 109 0.0 0.0 0.00 1.37 0.00 90 1012.3
20260507050603 5 109 0.0 0.0 0.00 1.37 0.00 90 1012.3
20260507045601 5 109 0.0 0.0 0.00 1.42 0.00 90 1012.5
20260507045100 5 109 0.0 0.0 0.00 1.45 0.00 90 1012.4
20260507044558 5 109 0.0 0.0 0.00 1.47 0.00 90 1012.5
20260507044052 5 109 0.0 0.0 0.00 1.50 0.00 90 1012.4
20260507043718 5 109 0.0 0.0 0.00 1.52 0.00 91 1012.4
20260507043050 5 109 0.0 0.0 0.00 1.52 0.00 91 1012.4
20260507042548 5 109 0.0 0.0 0.00 1.52 0.00 91 1012.4
20260507042046 5 109 0.0 0.0 0.00 1.55 0.00 91 1012.3
20260507041544 5 109 0.0 0.0 0.00 1.57 0.00 91 1012.3
20260507041042 5 109 0.0 0.0 0.00 1.57 0.00 91 1012.3
20260507040541 5 109 0.0 0.0 0.00 1.57 0.00 91 1012.3
20260507040038 5 109 0.0 0.0 0.00 1.60 0.00 92 1012.1
20260507035537 5 109 0.0 0.0 0.00 1.60 1.60 92 1012.1
20260507035036 5 109 0.0 0.0 0.00 1.63 1.60 92 1012.1
20260507034537 5 109 0.0 0.0 0.00 1.63 1.60 92 1012.1
20260507034037 5 109 0.0 0.0 0.00 1.63 1.60 92 1012.0
20260507033714 5 109 0.0 0.0 0.00 1.65 1.60 92 1012.0
20260507033037 5 109 0.0 0.0 0.00 1.65 1.60 92 1012.0
20260507032715 5 109 0.0 0.0 0.00 1.68 1.60 92 1012.0
20260507032032 6 109 0.0 0.0 0.00 1.68 1.60 92 1012.1
20260507031533 6 109 0.0 0.0 0.00 1.68 1.60 92 1011.9
20260507031033 6 109 0.0 0.0 0.00 1.68 1.60 92 1012.0
20260507030532 6 109 0.0 0.0 0.00 1.68 1.60 92 1012.0
20260507030033 6 109 0.0 0.0 0.00 1.68 1.60 92 1011.9
20260507025532 6 109 0.0 0.0 0.00 1.70 1.60 92 1011.9
20260507025033 6 109 0.0 0.0 0.00 1.70 1.60 92 1012.0
20260507024533 6 109 0.0 0.0 0.00 1.70 1.60 92 1011.8
20260507024030 6 109 0.0 0.0 0.00 1.70 1.60 92 1011.8
20260507023026 6 109 0.0 0.0 0.00 1.70 1.60 92 1011.8
20260507022527 6 109 0.0 0.0 0.00 1.70 1.60 92 1011.9
20260507022027 6 109 0.0 0.0 0.00 1.70 1.60 92 1011.8
20260507021526 6 109 0.0 0.0 0.00 1.70 1.60 92 1011.8
20260507021022 6 109 0.0 0.0 0.00 1.70 1.60 92 1011.9
20260507020522 6 109 0.0 0.0 0.00 1.70 1.60 92 1011.8
20260507020019 6 109 0.0 0.0 0.00 1.70 1.60 92 1011.9
20260507015719 6 109 0.0 0.0 0.00 1.70 1.60 92 1011.9
20260507015015 6 109 0.0 0.0 0.00 1.70 1.60 92 1011.8
20260507014513 6 109 0.0 0.0 0.00 1.70 1.60 92 1011.8
20260507014011 6 109 0.0 0.0 0.00 1.73 1.60 92 1011.7
20260507013510 6 109 0.0 0.0 0.00 1.73 1.60 92 1011.6
20260507012509 6 109 0.0 0.0 0.00 1.73 1.60 92 1011.7
20260507012007 6 109 0.0 0.0 0.00 1.75 1.60 92 1011.8
20260507011506 6 109 0.0 0.0 0.00 1.75 1.60 92 1011.8
20260507011004 6 109 0.0 0.0 0.00 1.75 1.60 92 1011.7
20260507010507 6 106 0.0 0.0 0.00 1.75 1.60 92 1011.7
20260507010005 6 106 0.0 0.0 0.00 1.75 1.60 92 1011.5
20260507004955 6 82 0.0 0.0 0.00 1.78 1.60 92 1011.5
20260507004449 6 82 0.0 0.0 0.00 1.78 1.60 92 1011.5
20260507003943 6 81 0.0 0.0 0.03 1.80 1.60 92 1011.5
20260507003437 6 81 0.0 0.0 0.05 1.80 1.60 92 1011.5
20260507002932 6 81 0.0 0.0 0.05 1.80 1.60 92 1011.5
20260507002432 5 81 0.0 0.0 0.05 1.83 1.60 92 1011.3
20260507001932 6 81 0.0 0.0 0.08 1.83 1.60 92 1011.2
20260507001431 6 81 0.0 0.0 0.08 1.83 1.60 92 1011.2
20260507000931 6 81 0.0 0.0 0.08 1.85 1.60 91 1011.1
20260507000431 6 81 0.0 0.0 0.08 1.85 1.60 91 1010.9
20260506235932 6 81 0.0 0.0 0.10 1.88 1.60 91 1011.0
20260506235432 6 81 0.0 0.0 0.10 1.88 1.60 91 1010.9
20260506234932 6 81 0.0 0.0 0.13 1.88 1.60 91 1010.8
20260506234432 6 81 0.0 0.0 0.15 1.88 1.60 90 1010.9
20260506233934 6 83 0.0 0.0 0.13 1.85 1.57 91 1010.9
20260506233432 7 84 0.0 0.0 0.10 1.85 1.55 91 1010.8
20260506232931 7 84 0.0 0.0 0.13 1.85 1.55 90 1010.8
20260506232432 7 85 0.0 0.0 0.13 1.85 1.55 90 1010.7
20260506231931 7 85 0.0 0.0 0.13 1.85 1.52 90 1010.4
20260506231431 7 85 0.0 0.0 0.13 1.85 1.52 90 1010.3
20260506230933 7 85 0.0 0.0 0.13 1.85 1.52 90 1010.3
20260506230431 7 85 0.0 0.0 0.13 1.88 1.50 89 1010.0
20260506225925 8 86 0.0 0.0 0.10 1.85 1.50 89 1009.9
20260506225425 8 86 0.0 0.0 0.08 1.83 1.47 89 1009.8
20260506224923 8 86 0.0 0.0 0.08 1.83 1.47 88 1009.8
20260506224423 8 86 0.0 0.0 0.05 1.83 1.45 88 1009.7
20260506223924 8 86 0.0 0.0 0.05 1.83 1.45 87 1009.5
20260506223421 8 85 0.0 0.0 0.05 1.83 1.42 86 1009.5
20260506222921 8 86 0.0 0.0 0.03 1.80 1.42 86 1009.5
20260506222422 8 86 0.0 0.0 0.03 1.80 1.40 85 1009.4
20260506221920 8 86 0.0 0.0 0.00 1.78 1.40 84 1009.4
20260506221418 8 86 0.0 0.0 0.00 1.80 1.40 84 1009.3
20260506220916 8 86 0.0 0.0 0.00 1.80 1.40 85 1009.3
20260506220414 8 86 0.0 0.0 0.00 1.80 1.40 84 1009.3
20260506215912 8 86 0.0 0.0 0.00 1.80 1.40 84 1009.2
20260506215410 8 86 0.0 0.0 0.00 1.83 1.40 84 1009.2
20260506214908 8 85 0.0 0.0 0.00 1.83 1.40 83 1009.0
20260506214405 8 86 0.0 0.0 0.00 1.83 1.40 83 1009.1
20260506213904 8 85 0.0 0.0 0.00 1.83 1.40 83 1009.0
20260506213402 8 86 0.0 0.0 0.00 1.85 1.40 83 1009.1
20260506212903 8 88 0.0 0.0 0.00 1.85 1.40 83 1009.1
20260506212403 9 86 0.0 0.0 0.00 1.85 1.40 82 1009.0
20260506211903 9 86 0.0 0.0 0.00 1.85 1.40 82 1009.0
20260506211400 9 86 0.0 0.0 0.00 1.85 1.40 80 1009.1
20260506210857 10 86 0.0 0.0 0.00 1.85 1.40 80 1009.1
20260506204054 10 0 0.0 0.0 0.00 1.85 1.40 77 1009.2
20260506184532 8 0 0.0 0.0 0.00 1.85 1.40 88 1009.4
20260506182333 7 86 0.0 0.0 0.00 1.85 1.40 89 1009.4
20260506181833 7 86 0.0 0.0 0.00 1.85 1.40 90 1009.4
20260506181333 7 86 0.0 0.0 0.00 1.85 1.40 91 1009.6
20260506180828 7 86 0.0 0.0 0.00 1.85 1.40 90 1009.6
20260506180328 7 86 0.0 0.0 0.00 1.85 1.40 90 1009.8
20260506175829 7 86 0.0 0.0 0.00 1.85 1.40 90 1009.7
20260506175328 7 86 0.0 0.0 0.00 1.85 1.40 90 1009.7
20260506174832 7 86 0.0 0.0 0.00 1.85 1.40 90 1009.7
20260506174325 7 86 0.0 0.0 0.00 1.85 1.40 91 1009.6
20260506173823 7 86 0.0 0.0 0.00 1.85 1.40 91 1009.6
20260506173323 7 86 0.0 0.0 0.00 1.85 1.40 91 1009.4
20260506172822 7 86 0.0 0.0 0.00 1.85 1.40 91 1009.3
20260506172321 7 86 0.0 0.0 0.00 1.85 1.40 92 1009.4
20260506171821 7 86 0.0 0.0 0.00 1.85 1.40 92 1009.3
20260506171321 7 86 0.0 0.0 0.00 1.85 1.40 92 1009.2
20260506170819 7 86 0.0 0.0 0.00 1.85 1.40 92 1009.0
20260506170318 7 86 0.0 0.0 0.00 1.85 1.40 92 1009.0
20260506165819 7 86 0.0 0.0 0.00 1.85 1.40 92 1009.1
20260506165319 7 86 0.0 0.0 0.00 1.85 1.40 92 1009.0
20260506164817 7 86 0.0 0.0 0.00 1.85 1.40 92 1009.1
20260506164315 7 86 0.0 0.0 0.00 1.85 1.40 92 1009.0
20260506163815 7 86 0.0 0.0 0.00 1.85 1.40 92 1009.0
20260506163315 6 86 0.0 0.0 0.00 1.85 1.40 92 1009.0
20260506162813 6 86 0.0 0.0 0.00 1.85 1.40 92 1009.1
20260506162311 6 86 0.0 0.0 0.00 1.85 1.40 92 1009.0
20260506161811 6 86 0.0 0.0 0.00 1.85 1.40 92 1009.1
20260506161311 6 86 0.0 0.0 0.00 1.85 1.40 92 1009.1
20260506160809 6 86 0.0 0.0 0.00 1.85 1.40 92 1009.0
20260506160307 6 86 0.0 0.0 0.00 1.85 1.40 93 1009.1
20260506155806 6 86 0.0 0.0 0.00 1.85 1.40 93 1009.0
20260506155307 6 86 0.0 0.0 0.00 1.85 1.40 93 1008.9
20260506154807 6 86 0.0 0.0 0.00 1.85 1.40 92 1009.0
20260506154307 6 86 0.0 0.0 0.00 1.85 1.40 92 1009.2
20260506153803 6 86 0.0 0.0 0.00 1.85 1.40 92 1009.1
20260506153302 6 86 0.0 0.0 0.00 1.85 1.40 92 1009.0
20260506152803 6 86 0.0 0.0 0.00 1.85 1.40 92 1009.0
20260506152305 6 86 0.0 0.0 0.00 1.85 1.40 92 1008.9
20260506151804 6 86 0.0 1.6 0.00 1.85 1.40 92 1008.8
20260506151302 6 86 0.0 1.6 0.00 1.85 1.40 92 1008.8
20260506150803 6 86 0.0 0.0 0.00 1.85 1.40 92 1008.9
20260506150305 6 87 0.0 0.0 0.00 1.85 1.40 92 1008.9
20260506145802 6 87 0.0 0.0 0.00 1.85 1.40 92 1008.9
20260506145305 6 87 0.0 0.0 0.00 1.85 1.40 92 1008.9
20260506144802 6 87 0.0 0.0 0.00 1.85 1.40 92 1008.8
20260506144303 6 87 0.0 0.0 0.00 1.85 1.40 92 1008.8
20260506143803 6 87 0.0 0.0 0.00 1.85 1.40 92 1008.8
20260506143303 6 87 0.0 0.0 0.00 1.85 1.40 92 1008.7
20260506142802 6 87 0.0 0.0 0.03 1.85 1.40 92 1008.6
20260506142305 6 87 0.0 0.0 0.03 1.85 1.40 92 1008.6
20260506141803 6 87 0.0 0.0 0.03 1.85 1.40 92 1008.6
20260506141302 6 87 0.0 0.0 0.03 1.85 1.40 92 1008.6
20260506140804 6 88 0.0 0.0 0.05 1.85 1.40 92 1008.4
20260506140303 6 88 0.0 0.0 0.05 1.85 1.40 92 1008.4
20260506135803 6 88 0.0 0.0 0.05 1.85 1.40 92 1008.4
20260506135305 6 88 0.0 0.0 0.05 1.85 1.40 92 1008.4
20260506134803 6 88 0.0 0.0 0.05 1.85 1.40 92 1008.4
20260506134302 6 88 0.0 0.0 0.08 1.85 1.40 92 1008.6
20260506133803 6 88 0.0 0.0 0.08 1.85 1.40 92 1008.6
20260506133302 6 88 0.0 0.0 0.08 1.85 1.40 92 1008.4
20260506132803 6 88 0.0 0.0 0.05 1.83 1.37 92 1008.4
20260506132302 6 88 0.0 0.0 0.05 1.83 1.37 92 1008.4
20260506131805 6 88 0.0 0.0 0.08 1.83 1.37 92 1008.4
20260506131302 6 88 0.0 0.0 0.08 1.83 1.37 92 1008.4
20260506130803 6 88 0.0 0.0 0.05 1.80 1.35 92 1008.2
20260506130302 6 88 0.0 0.0 0.05 1.80 1.35 92 1008.2
20260506125803 6 88 0.0 0.0 0.08 1.80 1.35 92 1008.2
20260506125305 6 88 0.0 0.0 0.08 1.80 1.35 92 1008.2
20260506124803 6 88 0.0 0.0 0.08 1.80 1.35 92 1008.2
20260506124302 6 88 0.0 4.8 0.05 1.78 1.32 92 1008.2
20260506123802 6 88 0.0 4.8 0.05 1.78 1.32 92 1008.2
20260506123258 6 90 0.0 3.2 0.08 1.78 1.32 92 1008.1
20260506122752 6 91 0.0 3.2 0.08 1.78 1.32 92 1008.0
20260506122246 6 70 0.0 0.0 0.08 1.78 1.32 92 1008.0
20260506121740 6 71 0.0 0.0 0.05 1.75 1.30 92 1008.0
20260506121240 6 71 0.0 0.0 0.05 1.75 1.30 92 1008.2
20260506120740 6 71 0.0 0.0 0.05 1.75 1.30 92 1008.2
20260506120239 6 71 0.0 0.0 0.08 1.75 1.30 92 1008.3
20260506115738 6 71 0.0 0.0 0.05 1.73 1.27 92 1008.3
20260506115236 6 71 0.0 0.0 0.05 1.73 1.27 92 1008.3
20260506114736 6 70 0.0 0.0 0.08 1.73 1.27 92 1008.3
20260506114236 6 70 0.0 0.0 0.08 1.73 1.27 92 1008.3
20260506113736 6 71 0.0 0.0 0.10 1.73 1.27 92 1008.5
20260506113237 6 71 0.0 0.0 0.10 1.70 1.24 92 1008.2
20260506112737 6 71 0.0 0.0 0.10 1.70 1.24 92 1008.3
20260506112232 6 70 0.0 0.0 0.13 1.70 1.24 92 1008.1
20260506111732 6 71 0.0 0.0 0.15 1.70 1.24 92 1008.3
20260506111232 6 71 0.0 0.0 0.15 1.70 1.24 92 1008.0
20260506110732 6 71 0.0 0.0 0.18 1.70 1.24 92 1007.8
20260506110232 6 71 0.0 0.0 0.15 1.68 1.22 92 1007.9
20260506105732 6 71 0.0 0.0 0.18 1.68 1.22 92 1008.0
20260506105232 6 71 0.0 0.0 0.18 1.68 1.22 92 1007.7
20260506104732 6 71 0.0 0.0 0.15 1.65 1.19 92 1007.6
20260506104231 6 71 0.0 0.0 0.18 1.65 1.17 92 1007.8
20260506103730 6 70 0.0 0.0 0.18 1.63 1.17 92 1008.0
20260506103230 6 70 0.0 0.0 0.15 1.60 1.14 92 1008.1
20260506102729 6 70 0.0 0.0 0.18 1.60 1.14 92 1008.2
20260506102230 6 81 0.0 0.0 0.15 1.57 1.12 92 1008.1
20260506101730 6 81 0.0 0.0 0.13 1.55 1.09 92 1008.1
20260506101230 6 81 0.0 0.0 0.13 1.55 1.09 92 1008.2
20260506100730 6 81 0.0 0.0 0.10 1.52 1.07 92 1008.3
20260506100231 6 81 0.0 0.0 0.08 1.50 1.04 92 1008.3
20260506095730 6 81 0.0 0.0 0.10 1.50 1.04 92 1008.2
20260506095230 6 81 0.0 0.0 0.10 1.50 1.04 92 1008.3
20260506094730 6 81 0.0 0.0 0.10 1.50 1.02 92 1008.3
20260506094230 6 81 0.0 0.0 0.08 1.47 1.02 92 1008.4
20260506093730 6 81 0.0 0.0 0.08 1.45 0.99 92 1008.5
20260506093231 6 81 0.0 0.0 0.08 1.45 0.99 92 1008.4
20260506092731 6 81 0.0 0.0 0.05 1.42 0.97 92 1008.1
20260506092231 6 81 0.0 0.0 0.05 1.42 0.97 92 1008.1
20260506091731 6 81 0.0 0.0 0.08 1.42 0.97 92 1008.2
20260506091230 6 81 0.0 0.0 0.08 1.42 0.97 92 1008.1
20260506090729 6 82 0.0 0.0 0.08 1.42 0.97 92 1008.0
20260506090232 6 82 0.0 0.0 0.08 1.42 0.97 92 1007.9
20260506085730 6 82 0.0 0.0 0.08 1.40 0.94 92 1008.0
20260506085230 7 82 0.0 0.0 0.08 1.40 0.94 92 1008.1
20260506084730 7 82 0.0 0.0 0.10 1.40 0.94 92 1008.0
20260506084231 6 82 0.0 0.0 0.10 1.40 0.94 92 1008.0
20260506083730 6 81 0.0 1.6 0.08 1.37 0.91 92 1008.0
20260506083231 6 82 0.0 1.6 0.10 1.37 0.91 92 1008.2
20260506082730 7 82 0.0 0.0 0.13 1.37 0.91 92 1008.3
20260506082231 7 82 0.0 0.0 0.13 1.37 0.91 92 1008.4
20260506081730 7 82 0.0 0.0 0.10 1.35 0.89 92 1008.4
20260506081230 7 82 0.0 0.0 0.13 1.35 0.89 92 1008.3
20260506080730 7 83 0.0 0.0 0.15 1.35 0.89 92 1008.3
20260506080231 7 83 0.0 1.6 0.15 1.35 0.89 92 1008.1